Location: Condor
(52.3263°N, 114.5541°W)
Time: 08:38:59
(UTC+00:00)

CUBESAT XI-V - Visible Passes

Search period start: 08 December 2023 00:00
Search period end: 18 December 2023 00:00
Orbit: 661 x 683 km, 98.2° (Epoch: 06 December)

Date Brightness Start Highest point End Pass type
(mag) Time Alt. Az. Time Alt. Az. Time Alt. Az.
09 Dec ? 00:29:50 10° NNW 00:32:19 14° NW 00:34:47 10° W visible
12 Dec ? 00:32:54 10° NNW 00:35:13 14° NW 00:37:31 10° W visible
14 Dec ? 00:01:36 10° N 00:05:10 22° WNW 00:08:41 10° WSW visible
15 Dec ? 00:35:57 10° NNW 00:38:05 13° NW 00:40:12 10° W visible
17 Dec ? 00:04:33 10° N 00:08:01 21° WNW 00:11:27 10° WSW visible
